Time[GMT],temperature[C](50m),salinity[psu](50m),sigma_t[kg/m^3](50m),dissolved_oxygen[ml/l](50m),oxygen_saturation[ml/l](50m),percent_oxygen_saturation[%](50m),conductivity[msiemens/cm](50m),pressure[decibars](50m)
2017-12-08 02:00,8.76,32.699,25.354,5.197,6.5901,78.85,34.751,50.69
2017-12-08 03:00,8.76,32.684,25.342,5.223,6.5907,79.25,34.737,50.50
2017-12-08 04:00,8.81,32.648,25.307,5.264,6.5848,79.94,34.747,50.21
2017-12-08 05:00,8.78,32.689,25.343,5.226,6.5875,79.33,34.759,50.08
2017-12-08 06:00,8.85,32.581,25.248,5.448,6.5817,82.78,34.718,50.65
2017-12-08 07:00,8.79,32.680,25.335,5.231,6.5864,79.42,34.760,50.61
2017-12-08 08:00,8.83,32.656,25.310,5.293,6.5815,80.42,34.772,50.23
2017-12-08 09:00,8.85,32.637,25.291,5.317,6.5793,80.81,34.771,50.07
2017-12-08 10:00,8.86,32.625,25.281,5.356,6.5783,81.42,34.769,50.19
2017-12-08 11:00,8.95,32.526,25.190,5.541,6.5692,84.34,34.753,49.84
2017-12-08 12:00,8.79,32.681,25.336,5.277,6.5863,80.12,34.761,49.96
2017-12-08 13:00,8.78,32.694,25.347,5.243,6.5873,79.60,34.764,50.10
2017-12-08 14:00,8.77,32.701,25.354,5.253,6.5885,79.73,34.762,50.25
2017-12-08 15:00,8.77,32.703,25.356,5.250,6.5884,79.68,34.764,50.51
2017-12-08 16:00,8.79,32.667,25.324,5.277,6.5870,80.12,34.747,50.40
2017-12-08 17:00,8.79,32.682,25.337,5.274,6.5863,80.08,34.762,50.57
2017-12-08 18:00,8.80,32.658,25.316,5.297,6.5859,80.42,34.747,50.86
2017-12-08 19:00,8.83,32.599,25.265,5.393,6.5839,81.91,34.717,50.65
2017-12-08 20:00,8.79,32.689,25.341,5.282,6.5860,80.21,34.768,50.69
2017-12-08 21:00,8.79,32.686,25.339,5.288,6.5862,80.29,34.765,50.62
2017-12-08 22:00,8.79,32.657,25.317,5.278,6.5874,80.12,34.738,50.36
2017-12-08 23:00,8.79,32.672,25.328,5.272,6.5867,80.03,34.752,50.62
2017-12-09 00:00,8.79,32.682,25.337,5.265,6.5863,79.94,34.762,50.24
2017-12-09 01:00,8.90,32.396,25.095,5.883,6.5820,89.38,34.584,50.56
2017-12-09 02:00,8.88,32.446,25.137,5.766,6.5829,87.59,34.614,50.64
2017-12-09 03:00,8.81,32.649,25.308,5.342,6.5847,81.12,34.748,50.88
2017-12-09 04:00,8.89,32.498,25.177,5.561,6.5792,84.52,34.673,50.63
2017-12-09 05:00,8.86,32.549,25.221,5.500,6.5815,83.57,34.696,50.81
2017-12-09 06:00,8.85,32.559,25.231,5.498,6.5826,83.52,34.697,50.74
2017-12-09 07:00,8.86,32.540,25.214,5.518,6.5819,83.83,34.687,50.79
2017-12-09 08:00,8.87,32.513,25.192,5.569,6.5816,84.61,34.670,50.76
2017-12-09 09:00,8.86,32.545,25.218,5.506,6.5817,83.65,34.692,50.81
2017-12-09 10:00,8.87,32.533,25.207,5.516,6.5807,83.83,34.689,50.82
2017-12-09 11:00,8.88,32.360,25.070,5.993,6.5865,91.00,34.532,50.76
2017-12-09 12:00,8.88,32.484,25.167,5.620,6.5813,85.40,34.651,50.67
2017-12-09 13:00,8.89,32.423,25.118,5.762,6.5824,87.54,34.601,50.76
2017-12-09 14:00,8.81,32.665,25.320,5.324,6.5841,80.86,34.763,50.76
2017-12-09 15:00,8.90,32.483,25.164,5.592,6.5784,85.00,34.668,50.75
2017-12-09 16:00,8.89,32.496,25.175,5.576,6.5793,84.74,34.671,50.75
2017-12-09 17:00,8.85,32.561,25.232,5.475,6.5825,83.17,34.698,50.53
2017-12-09 18:00,8.83,32.623,25.284,5.389,6.5829,81.86,34.740,50.52
2017-12-09 19:00,8.87,32.411,25.112,5.826,6.5859,88.46,34.572,50.28
2017-12-09 20:00,8.84,32.336,25.058,6.023,6.5935,91.35,34.474,50.03
2017-12-09 21:00,8.86,32.347,25.063,5.988,6.5900,90.87,34.502,49.74
2017-12-09 22:00,8.86,32.333,25.052,6.092,6.5907,92.44,34.488,48.64
2017-12-09 23:00,8.79,32.294,25.033,6.329,6.6027,95.86,34.390,48.96
2017-12-10 00:00,8.77,32.281,25.025,6.342,6.6062,95.99,34.360,48.83
2017-12-10 01:00,8.87,32.362,25.073,5.943,6.5879,90.21,34.525,49.35
2017-12-10 02:00,8.78,32.270,25.015,6.182,6.6052,93.59,34.358,48.75
2017-12-10 03:00,8.82,32.316,25.045,6.082,6.5973,92.18,34.437,49.13
2017-12-10 04:00,8.86,32.330,25.050,6.012,6.5908,91.22,34.485,48.73
2017-12-10 05:00,8.85,32.305,25.032,6.127,6.5933,92.92,34.453,49.59
2017-12-10 06:00,8.87,32.367,25.077,5.974,6.5877,90.69,34.530,49.74
2017-12-10 07:00,8.80,32.320,25.051,6.125,6.6001,92.80,34.423,49.89
2017-12-10 08:00,8.81,32.337,25.063,6.163,6.5979,93.41,34.448,49.69
2017-12-10 09:00,8.69,32.283,25.039,6.356,6.6181,96.05,34.292,50.61
2017-12-10 10:00,8.67,32.277,25.038,6.363,6.6214,96.09,34.269,50.22
2017-12-10 11:00,8.64,32.262,25.030,6.382,6.6265,96.32,34.228,50.27
2017-12-10 12:00,8.66,32.277,25.039,6.396,6.6229,96.58,34.260,49.29
2017-12-10 13:00,8.67,32.288,25.046,6.391,6.6209,96.53,34.279,49.49
2017-12-10 14:00,8.83,32.452,25.150,6.003,6.5901,91.09,34.576,49.30
2017-12-10 15:00,8.82,32.409,25.118,6.127,6.5934,92.93,34.526,49.35
2017-12-10 16:00,8.79,32.395,25.112,6.192,6.5984,93.85,34.487,49.45
2017-12-10 17:00,8.81,32.391,25.105,6.279,6.5956,95.20,34.500,49.69
2017-12-10 18:00,8.82,32.390,25.103,6.321,6.5942,95.86,34.508,50.42
2017-12-10 19:00,8.81,32.388,25.103,6.340,6.5958,96.12,34.497,50.29
2017-12-10 20:00,8.83,32.421,25.126,6.200,6.5914,94.06,34.547,50.34
2017-12-10 21:00,8.84,32.424,25.126,6.158,6.5898,93.45,34.558,50.14
2017-12-10 22:00,8.80,32.367,25.088,6.345,6.5982,96.16,34.468,49.16
2017-12-10 23:00,8.81,32.373,25.091,6.338,6.5964,96.08,34.483,49.54
2017-12-11 00:00,8.82,32.388,25.101,6.304,6.5943,95.59,34.506,49.34
2017-12-11 01:00,8.80,32.382,25.100,6.321,6.5975,95.81,34.483,49.47
2017-12-11 02:00,8.71,32.337,25.078,6.328,6.6128,95.69,34.361,48.91
2017-12-11 03:00,8.83,32.408,25.115,6.232,6.5919,94.54,34.534,48.89
2017-12-11 04:00,8.84,32.430,25.131,6.143,6.5895,93.23,34.564,49.56
2017-12-11 05:00,8.83,32.417,25.123,6.197,6.5915,94.02,34.543,48.94
2017-12-11 06:00,8.80,32.394,25.109,6.257,6.5970,94.85,34.494,49.71
2017-12-11 07:00,8.81,32.417,25.125,6.177,6.5945,93.67,34.525,49.48
2017-12-11 08:00,8.79,32.398,25.113,6.244,6.5983,94.64,34.489,49.85
2017-12-11 09:00,8.75,32.364,25.093,6.275,6.6057,94.99,34.422,50.14
2017-12-11 10:00,8.76,32.370,25.096,6.276,6.6040,95.03,34.436,50.12
2017-12-11 11:00,8.75,32.362,25.092,6.272,6.6058,94.95,34.420,50.11
2017-12-11 12:00,8.73,32.350,25.085,6.281,6.6093,95.04,34.391,49.55
2017-12-11 13:00,8.73,32.340,25.077,6.311,6.6097,95.47,34.381,50.03
2017-12-11 14:00,8.68,32.276,25.035,6.283,6.6199,94.91,34.276,49.65
2017-12-11 15:00,8.70,32.316,25.063,6.328,6.6152,95.65,34.332,49.43
2017-12-11 16:00,8.71,32.330,25.073,6.308,6.6132,95.39,34.354,49.70
2017-12-11 17:00,8.74,32.353,25.087,6.285,6.6077,95.12,34.403,49.86
2017-12-11 18:00,8.74,32.362,25.093,6.288,6.6073,95.17,34.411,50.24
2017-12-11 19:00,8.72,32.349,25.086,6.294,6.6108,95.21,34.381,50.06
2017-12-11 20:00,8.71,32.331,25.073,6.285,6.6131,95.04,34.355,50.43
2017-12-11 21:00,8.69,32.303,25.055,6.318,6.6173,95.48,34.311,50.50
2017-12-11 22:00,8.68,32.291,25.047,6.320,6.6193,95.48,34.291,50.55
2017-12-11 23:00,8.68,32.310,25.062,6.305,6.6185,95.26,34.309,50.74
2017-12-12 00:00,8.67,32.309,25.062,6.327,6.6200,95.57,34.299,50.62
2017-12-12 01:00,8.67,32.316,25.068,6.309,6.6197,95.31,34.306,50.72
2017-12-12 02:00,8.63,32.269,25.037,6.392,6.6277,96.45,34.226,50.82
2017-12-12 03:00,8.66,32.327,25.078,6.322,6.6207,95.48,34.308,50.57
2017-12-12 04:00,8.68,32.309,25.061,6.259,6.6185,94.56,34.308,50.72
2017-12-12 05:00,8.73,32.367,25.099,6.153,6.6086,93.11,34.407,50.55
2017-12-12 06:00,8.73,32.388,25.115,6.184,6.6077,93.59,34.427,50.67
2017-12-12 07:00,8.71,32.323,25.068,6.199,6.6134,93.73,34.348,50.71
2017-12-12 08:00,8.71,32.317,25.063,6.196,6.6137,93.68,34.342,50.68
2017-12-12 09:00,8.66,32.272,25.035,6.286,6.6231,94.91,34.255,50.74
2017-12-12 10:00,8.64,32.244,25.016,6.328,6.6273,95.48,34.211,50.42
2017-12-12 11:00,8.68,32.304,25.057,6.270,6.6187,94.74,34.303,50.46
2017-12-12 12:00,8.68,32.325,25.073,6.269,6.6179,94.74,34.323,49.92
2017-12-12 13:00,8.70,32.321,25.067,6.255,6.6150,94.56,34.337,50.29
2017-12-12 14:00,8.69,32.269,25.028,6.230,6.6187,94.12,34.278,50.16
2017-12-12 15:00,8.71,32.269,25.025,6.206,6.6157,93.81,34.296,50.09
2017-12-12 16:00,8.73,32.318,25.060,6.155,6.6107,93.11,34.360,50.02
2017-12-12 17:00,8.73,32.337,25.075,6.134,6.6099,92.81,34.378,49.95
2017-12-12 18:00,8.73,32.334,25.073,6.146,6.6100,92.98,34.376,49.23
2017-12-12 19:00,8.74,32.336,25.073,6.133,6.6084,92.80,34.386,49.76
2017-12-12 20:00,8.72,32.334,25.074,6.165,6.6115,93.24,34.367,48.59
2017-12-12 21:00,8.75,32.328,25.065,6.112,6.6073,92.50,34.387,48.86
2017-12-12 22:00,8.71,32.319,25.064,6.204,6.6136,93.81,34.344,50.23
2017-12-12 23:00,8.70,32.326,25.071,6.200,6.6148,93.73,34.342,50.03
2017-12-13 00:00,8.72,32.311,25.057,6.163,6.6124,93.20,34.345,50.54
2017-12-13 01:00,8.72,32.299,25.047,6.169,6.6130,93.29,34.333,50.08
2017-12-13 02:00,8.70,32.297,25.048,6.198,6.6160,93.68,34.314,50.67
2017-12-13 03:00,8.69,32.282,25.038,6.212,6.6182,93.86,34.291,49.46
2017-12-13 04:00,8.75,32.289,25.035,6.081,6.6089,92.02,34.350,50.16
2017-12-13 05:00,8.67,32.273,25.034,6.209,6.6215,93.78,34.265,49.61
2017-12-13 06:00,8.60,32.250,25.027,6.308,6.6330,95.10,34.182,48.98
2017-12-13 07:00,8.62,32.256,25.028,6.278,6.6298,94.70,34.205,49.01
2017-12-13 08:00,8.64,32.263,25.031,6.307,6.6265,95.18,34.229,48.74
2017-12-13 09:00,8.64,32.233,25.007,6.311,6.6278,95.22,34.200,48.81
2017-12-13 10:00,8.67,32.267,25.029,6.299,6.6218,95.13,34.259,50.10
2017-12-13 11:00,8.70,32.292,25.044,6.271,6.6163,94.78,34.309,49.89
2017-12-13 12:00,8.74,32.338,25.074,6.225,6.6083,94.20,34.388,49.87
2017-12-13 13:00,8.70,32.290,25.043,6.268,6.6163,94.73,34.307,49.05
2017-12-13 14:00,8.73,32.338,25.076,6.172,6.6098,93.37,34.379,48.62
2017-12-13 15:00,8.67,32.269,25.031,6.270,6.6217,94.69,34.261,47.60
2017-12-13 16:00,8.64,32.220,24.997,6.297,6.6283,95.00,34.188,47.36
2017-12-13 17:00,8.67,32.310,25.063,6.219,6.6200,93.95,34.300,48.26
2017-12-13 18:00,8.68,32.287,25.044,6.219,6.6195,93.95,34.287,47.36
2017-12-13 19:00,8.74,32.386,25.112,6.065,6.6063,91.80,34.434,47.55
2017-12-13 20:00,8.55,32.203,24.997,6.317,6.6426,95.10,34.093,46.31
2017-12-13 21:00,8.57,32.214,25.003,6.311,6.6391,95.06,34.121,48.85
2017-12-13 22:00,8.51,32.217,25.014,6.329,6.6480,95.20,34.072,48.65
2017-12-13 23:00,8.56,32.288,25.062,6.280,6.6374,94.62,34.183,48.19
2017-12-14 00:00,8.56,32.299,25.071,6.254,6.6370,94.23,34.194,48.18
2017-12-14 01:00,8.53,32.302,25.078,6.270,6.6414,94.41,34.170,48.02
2017-12-14 02:00,8.50,32.303,25.083,6.257,6.6458,94.15,34.145,48.06
2017-12-14 03:00,8.52,32.330,25.101,6.250,6.6417,94.10,34.188,48.24
2017-12-14 04:00,8.37,32.260,25.069,6.267,6.6674,93.99,33.991,49.10
2017-12-14 05:00,8.31,32.261,25.079,6.200,6.6764,92.86,33.940,48.24
2017-12-14 06:00,8.29,32.255,25.077,6.203,6.6797,92.86,33.917,48.28
2017-12-14 07:00,8.19,32.205,25.052,6.229,6.6971,93.01,33.783,48.18
2017-12-14 08:00,8.17,32.212,25.061,6.252,6.6999,93.32,33.772,49.63
2017-12-14 09:00,8.25,32.227,25.061,6.231,6.6870,93.17,33.856,49.23
2017-12-14 10:00,8.35,32.272,25.081,6.205,6.6699,93.03,33.985,50.06
2017-12-14 11:00,8.49,32.336,25.111,6.228,6.6459,93.71,34.168,49.79
2017-12-14 12:00,8.33,32.301,25.107,6.151,6.6717,92.20,33.995,50.11
2017-12-14 13:00,8.22,32.306,25.127,6.094,6.6882,91.12,33.904,50.19
2017-12-14 14:00,8.28,32.300,25.114,6.115,6.6793,91.55,33.951,49.97
2017-12-14 15:00,8.30,32.315,25.122,6.138,6.6756,91.94,33.982,49.96
2017-12-14 16:00,8.24,32.269,25.095,6.186,6.6867,92.52,33.887,50.27
2017-12-14 17:00,8.42,32.233,25.040,6.342,6.6609,95.21,34.009,49.86
2017-12-14 18:00,8.49,32.269,25.058,6.309,6.6488,94.89,34.104,49.74
2017-12-14 19:00,8.57,32.338,25.100,6.257,6.6338,94.31,34.240,49.75
2017-12-14 20:00,8.58,32.339,25.099,6.258,6.6323,94.36,34.249,49.18
2017-12-14 21:00,8.64,32.387,25.128,6.215,6.6212,93.87,34.348,50.10
2017-12-14 22:00,8.56,32.317,25.085,6.259,6.6362,94.31,34.211,50.01
2017-12-14 23:00,8.43,32.246,25.049,6.363,6.6589,95.56,34.030,50.19
2017-12-15 00:00,8.44,32.253,25.053,6.344,6.6571,95.29,34.045,50.12
2017-12-15 01:00,8.40,32.237,25.046,6.371,6.6638,95.60,33.995,49.76
2017-12-15 02:00,8.51,32.287,25.069,6.279,6.6450,94.50,34.139,49.10
2017-12-15 03:00,8.30,32.233,25.058,6.404,6.6791,95.88,33.905,49.52
2017-12-15 04:00,8.28,32.217,25.048,6.416,6.6829,96.01,33.872,48.84
2017-12-15 05:00,8.29,32.217,25.047,6.397,6.6814,95.75,33.881,48.72
2017-12-15 06:00,8.26,32.214,25.049,6.414,6.6861,95.93,33.852,49.21
2017-12-15 07:00,8.26,32.221,25.055,6.414,6.6857,95.93,33.859,49.85
2017-12-15 08:00,8.24,32.212,25.051,6.426,6.6892,96.06,33.833,50.00
2017-12-15 09:00,8.24,32.218,25.055,6.414,6.6890,95.89,33.838,50.21
2017-12-15 10:00,8.28,32.227,25.057,6.387,6.6824,95.58,33.882,50.27
2017-12-15 11:00,8.25,32.234,25.066,6.391,6.6867,95.58,33.862,50.45
2017-12-15 12:00,8.22,32.228,25.065,6.411,6.6916,95.80,33.830,50.76
2017-12-15 13:00,8.20,32.227,25.068,6.420,6.6947,95.89,33.812,50.77
2017-12-15 14:00,8.20,32.228,25.069,6.411,6.6946,95.76,33.813,50.61
2017-12-15 15:00,8.20,32.225,25.066,6.411,6.6948,95.76,33.810,50.69
2017-12-15 16:00,8.28,32.253,25.076,6.359,6.6813,95.18,33.906,50.72
2017-12-15 17:00,8.22,32.237,25.073,6.407,6.6912,95.76,33.839,50.70
2017-12-15 18:00,8.23,32.239,25.073,6.397,6.6895,95.63,33.850,50.63
2017-12-15 19:00,8.23,32.250,25.082,6.367,6.6891,95.19,33.860,50.51
2017-12-15 20:00,8.21,32.239,25.076,6.421,6.6926,95.94,33.832,50.74
2017-12-15 21:00,8.21,32.247,25.082,6.376,6.6923,95.28,33.840,50.81
2017-12-15 22:00,8.25,32.278,25.101,6.322,6.6848,94.57,33.904,50.82
2017-12-15 23:00,8.26,32.302,25.118,6.285,6.6823,94.05,33.935,50.77
2017-12-16 00:00,8.14,32.248,25.093,6.331,6.7029,94.46,33.780,50.69
2017-12-16 01:00,8.14,32.264,25.106,6.325,6.7023,94.37,33.795,50.81
2017-12-16 02:00,8.14,32.262,25.104,6.328,6.7023,94.41,33.793,50.73
2017-12-16 03:00,8.18,32.260,25.097,6.342,6.6963,94.71,33.826,50.52
2017-12-16 04:00,8.15,32.252,25.095,6.336,6.7013,94.54,33.792,50.25
2017-12-16 05:00,8.17,32.246,25.087,6.386,6.6984,95.33,33.804,50.45
2017-12-16 06:00,8.16,32.260,25.100,6.340,6.6993,94.63,33.809,50.39
2017-12-16 07:00,8.13,32.245,25.092,6.389,6.7046,95.29,33.768,49.87
2017-12-16 08:00,8.28,32.318,25.128,6.249,6.6785,93.56,33.968,50.50
2017-12-16 09:00,8.13,32.281,25.120,6.285,6.7031,93.76,33.802,49.82
2017-12-16 10:00,8.02,32.272,25.129,6.299,6.7204,93.73,33.698,50.32
2017-12-16 11:00,8.14,32.299,25.133,6.250,6.7007,93.28,33.828,50.65
2017-12-16 12:00,8.02,32.281,25.136,6.305,6.7199,93.82,33.707,50.41
2017-12-16 13:00,8.03,32.274,25.129,6.303,6.7187,93.82,33.709,50.44
2017-12-16 14:00,8.03,32.273,25.129,6.309,6.7188,93.90,33.708,50.31
2017-12-16 15:00,8.07,32.274,25.124,6.279,6.7125,93.55,33.744,50.19
2017-12-16 16:00,8.05,32.288,25.138,6.300,6.7150,93.81,33.740,50.24
2017-12-16 17:00,8.04,32.278,25.131,6.334,6.7170,94.30,33.721,50.04
2017-12-16 18:00,8.03,32.260,25.119,6.363,6.7193,94.69,33.696,50.21
2017-12-16 19:00,7.97,32.269,25.134,6.378,6.7282,94.79,33.652,49.90
2017-12-16 20:00,7.94,32.269,25.138,6.397,6.7328,95.01,33.626,49.82
2017-12-16 21:00,7.98,32.285,25.145,6.393,6.7259,95.05,33.676,49.61
2017-12-16 22:00,7.94,32.272,25.141,6.438,6.7327,95.62,33.629,49.96
2017-12-16 23:00,8.02,32.299,25.151,6.336,6.7192,94.30,33.724,50.12
2017-12-17 00:00,7.99,32.285,25.144,6.362,6.7244,94.61,33.685,50.19
2017-12-17 01:00,8.01,32.268,25.128,6.374,6.7221,94.83,33.686,50.56
2017-12-17 02:00,8.02,32.257,25.117,6.382,6.7210,94.96,33.684,50.60
2017-12-17 03:00,8.07,32.263,25.115,6.383,6.7131,95.08,33.733,50.13
2017-12-17 04:00,8.06,32.268,25.120,6.375,6.7144,94.95,33.729,50.31
2017-12-17 05:00,8.02,32.266,25.125,6.393,6.7206,95.13,33.693,49.89
2017-12-17 06:00,8.00,32.257,25.120,6.432,6.7241,95.66,33.667,50.08
2017-12-17 07:00,7.97,32.253,25.121,6.434,6.7289,95.62,33.637,50.24
2017-12-17 08:00,7.91,32.251,25.128,6.464,6.7382,95.93,33.583,50.20
2017-12-17 09:00,7.88,32.257,25.138,6.457,6.7426,95.76,33.563,50.81
2017-12-17 10:00,7.85,32.262,25.146,6.456,6.7470,95.68,33.542,50.33
2017-12-17 11:00,7.84,32.258,25.144,6.475,6.7488,95.95,33.529,50.58
2017-12-17 12:00,7.85,32.261,25.145,6.465,6.7471,95.81,33.541,50.61
2017-12-17 13:00,7.84,32.259,25.145,6.469,6.7487,95.86,33.530,50.63
2017-12-17 14:00,7.88,32.263,25.143,6.448,6.7423,95.63,33.569,50.42
2017-12-17 15:00,7.91,32.262,25.138,6.428,6.7377,95.41,33.594,50.25
2017-12-17 16:00,7.91,32.260,25.136,6.443,6.7378,95.63,33.592,50.43
2017-12-17 17:00,7.88,32.259,25.139,6.463,6.7425,95.85,33.565,50.48
2017-12-17 18:00,7.83,32.260,25.148,6.477,6.7502,95.95,33.523,50.45
2017-12-17 19:00,7.87,32.261,25.142,6.470,6.7440,95.94,33.558,50.19
2017-12-17 20:00,7.98,32.289,25.149,6.378,6.7258,94.83,33.680,50.06
2017-12-17 21:00,7.94,32.301,25.163,6.402,6.7314,95.10,33.656,50.45
2017-12-17 22:00,7.93,32.300,25.165,6.412,6.7330,95.23,33.647,50.70
2017-12-17 23:00,7.91,32.286,25.156,6.436,6.7367,95.54,33.616,50.41
2017-12-18 00:00,7.92,32.297,25.163,6.420,6.7347,95.32,33.635,50.91
2017-12-18 01:00,7.93,32.290,25.156,6.415,6.7335,95.28,33.637,50.87
2017-12-18 02:00,7.92,32.296,25.162,6.408,6.7347,95.15,33.634,51.03
2017-12-18 03:00,7.90,32.286,25.158,6.408,6.7382,95.10,33.608,50.78
2017-12-18 04:00,7.89,32.278,25.152,6.419,6.7402,95.24,33.591,50.81
2017-12-18 05:00,7.87,32.283,25.160,6.413,6.7430,95.11,33.579,50.92
2017-12-18 06:00,7.89,32.287,25.160,6.410,6.7397,95.11,33.600,50.92
2017-12-18 07:00,7.88,32.294,25.167,6.423,6.7410,95.28,33.598,50.79
2017-12-18 08:00,7.89,32.297,25.167,6.404,6.7393,95.02,33.609,50.88
2017-12-18 09:00,7.92,32.297,25.163,6.381,6.7347,94.75,33.635,50.84
2017-12-18 10:00,7.92,32.295,25.161,6.390,6.7348,94.88,33.633,50.93
2017-12-18 11:00,7.92,32.295,25.161,6.384,6.7348,94.80,33.633,51.02
2017-12-18 12:00,7.90,32.298,25.167,6.390,6.7377,94.84,33.619,51.03
2017-12-18 13:00,7.89,32.290,25.162,6.401,6.7396,94.97,33.603,50.85
2017-12-18 14:00,7.88,32.293,25.166,6.408,6.7410,95.06,33.597,50.82
2017-12-18 15:00,7.88,32.286,25.160,6.394,6.7414,94.84,33.590,50.57
2017-12-18 16:00,7.87,32.282,25.159,6.398,6.7431,94.89,33.578,50.88
2017-12-18 17:00,7.87,32.283,25.160,6.416,6.7430,95.15,33.579,50.81
2017-12-18 18:00,7.87,32.286,25.162,6.413,6.7429,95.11,33.582,50.55
2017-12-18 19:00,7.88,32.291,25.164,6.411,6.7411,95.11,33.595,50.57
2017-12-18 20:00,7.89,32.289,25.162,6.398,6.7397,94.93,33.602,50.57
2017-12-18 21:00,7.90,32.292,25.162,6.382,6.7380,94.71,33.613,49.88
2017-12-18 22:00,7.90,32.304,25.171,6.387,6.7375,94.80,33.624,50.63
2017-12-18 23:00,7.90,32.295,25.165,6.390,6.7379,94.84,33.616,50.60
2017-12-19 00:00,7.90,32.298,25.167,6.381,6.7377,94.71,33.619,50.62
2017-12-19 01:00,7.88,32.293,25.166,6.388,6.7410,94.76,33.597,50.58
2017-12-19 02:00,7.86,32.288,25.165,6.382,6.7443,94.63,33.575,50.81
2017-12-19 03:00,7.81,32.281,25.167,6.432,6.7524,95.25,33.525,50.85
2017-12-19 04:00,7.81,32.276,25.162,6.432,6.7526,95.25,33.520,50.54
2017-12-19 05:00,7.84,32.295,25.173,6.397,6.7472,94.81,33.564,50.55
2017-12-19 06:00,7.82,32.279,25.164,6.424,6.7509,95.16,33.532,50.63
2017-12-19 07:00,7.82,32.278,25.163,6.436,6.7510,95.34,33.531,50.59
2017-12-19 08:00,7.85,32.290,25.168,6.387,6.7458,94.67,33.568,50.49
2017-12-19 09:00,7.80,32.280,25.167,6.433,6.7540,95.25,33.515,50.34
2017-12-19 10:00,7.84,32.290,25.169,6.409,6.7474,94.98,33.559,50.52
2017-12-19 11:00,7.86,32.294,25.169,6.391,6.7441,94.76,33.580,50.24
2017-12-19 12:00,7.88,32.295,25.168,6.340,6.7409,94.06,33.599,50.50
2017-12-19 13:00,7.91,32.373,25.225,6.300,6.7329,93.57,33.698,50.62
2017-12-19 14:00,7.82,32.366,25.232,6.350,6.7472,94.11,33.613,50.73
2017-12-19 15:00,7.82,32.354,25.222,6.362,6.7477,94.28,33.602,50.63
2017-12-19 16:00,7.83,32.352,25.220,6.361,6.7462,94.28,33.609,50.42
2017-12-19 17:00,7.81,32.400,25.260,6.353,6.7472,94.15,33.636,50.40
2017-12-19 18:00,7.83,32.350,25.218,6.355,6.7463,94.20,33.607,50.17
2017-12-19 19:00,7.85,32.342,25.209,6.349,6.7435,94.15,33.617,50.52
2017-12-19 20:00,7.87,32.323,25.191,6.356,6.7413,94.28,33.616,50.35
2017-12-19 21:00,7.87,32.327,25.194,6.349,6.7411,94.19,33.620,50.16
2017-12-19 22:00,7.91,32.333,25.193,6.313,6.7347,93.75,33.660,50.10
2017-12-19 23:00,7.87,32.330,25.197,6.343,6.7410,94.10,33.623,50.33
2017-12-20 00:00,7.84,32.329,25.200,6.369,6.7457,94.41,33.596,50.07
2017-12-20 01:00,7.82,32.346,25.216,6.356,6.7481,94.20,33.594,49.82
2017-12-20 02:00,7.88,32.472,25.307,6.339,6.7332,94.14,33.765,49.96
2017-12-20 03:00,7.90,32.444,25.282,6.281,6.7314,93.31,33.756,50.53
2017-12-20 04:00,7.88,32.424,25.269,6.306,6.7353,93.62,33.720,50.69
2017-12-20 05:00,7.90,32.442,25.280,6.284,6.7315,93.35,33.754,50.21
2017-12-20 06:00,7.89,32.445,25.284,6.294,6.7329,93.49,33.748,50.17
2017-12-20 07:00,7.89,32.435,25.276,6.301,6.7333,93.57,33.739,49.85
2017-12-20 08:00,7.85,32.420,25.270,6.340,6.7402,94.06,33.690,49.72
2017-12-20 09:00,7.77,32.430,25.289,6.373,6.7521,94.38,33.630,50.07
2017-12-20 10:00,7.77,32.387,25.255,6.380,6.7540,94.47,33.589,49.61
2017-12-20 11:00,7.84,32.497,25.332,6.362,6.7384,94.41,33.753,49.86
2017-12-20 12:00,7.84,32.512,25.343,6.361,6.7377,94.41,33.767,49.86
2017-12-20 13:00,7.86,32.517,25.344,6.367,6.7344,94.54,33.789,49.95
2017-12-20 14:00,7.85,32.517,25.346,6.365,6.7359,94.50,33.781,50.17
2017-12-20 15:00,7.85,32.511,25.341,6.375,6.7362,94.63,33.775,49.98
2017-12-20 16:00,7.86,32.512,25.341,6.361,6.7346,94.45,33.785,50.13
2017-12-20 17:00,7.86,32.519,25.346,6.358,6.7343,94.41,33.791,50.11
2017-12-20 18:00,7.81,32.485,25.327,6.376,6.7435,94.55,33.716,49.72
2017-12-20 19:00,7.79,32.467,25.316,6.380,6.7474,94.55,33.682,50.30
2017-12-20 20:00,7.84,32.501,25.335,6.368,6.7382,94.50,33.757,50.08
2017-12-20 21:00,7.83,32.489,25.327,6.367,6.7403,94.46,33.737,50.48
2017-12-20 22:00,7.86,32.495,25.328,6.341,6.7353,94.15,33.769,49.83
2017-12-20 23:00,7.87,32.515,25.341,6.348,6.7329,94.28,33.796,49.99
2017-12-21 00:00,7.87,32.518,25.344,6.345,6.7328,94.23,33.799,50.22
2017-12-21 01:00,7.87,32.521,25.347,6.333,6.7327,94.06,33.802,50.31
2017-12-21 02:00,7.87,32.514,25.341,6.321,6.7330,93.88,33.795,50.28
2017-12-21 03:00,7.87,32.515,25.341,6.312,6.7329,93.75,33.796,50.37
2017-12-21 04:00,7.87,32.518,25.344,6.315,6.7328,93.80,33.799,50.46
2017-12-21 05:00,7.87,32.515,25.341,6.324,6.7329,93.93,33.796,50.08
2017-12-21 06:00,7.86,32.492,25.325,6.329,6.7355,93.97,33.766,50.02
2017-12-21 07:00,7.84,32.471,25.312,6.354,6.7395,94.28,33.729,49.99
2017-12-21 08:00,7.82,32.455,25.301,6.364,6.7433,94.37,33.696,49.91
2017-12-21 09:00,7.82,32.443,25.292,6.373,6.7438,94.50,33.685,49.81
2017-12-21 10:00,7.87,32.505,25.334,6.301,6.7334,93.58,33.787,49.85
2017-12-21 11:00,7.83,32.474,25.315,6.338,6.7409,94.02,33.723,50.22
2017-12-21 12:00,7.87,32.507,25.336,6.292,6.7333,93.45,33.789,50.56
2017-12-21 13:00,7.87,32.513,25.340,6.292,6.7330,93.45,33.794,49.82
2017-12-21 14:00,7.87,32.506,25.335,6.295,6.7333,93.49,33.788,49.97
2017-12-21 15:00,7.86,32.498,25.330,6.303,6.7352,93.58,33.772,50.57
2017-12-21 16:00,7.87,32.500,25.330,6.292,6.7336,93.45,33.782,50.67
2017-12-21 17:00,7.88,32.513,25.339,6.278,6.7315,93.27,33.803,50.75
2017-12-21 18:00,7.88,32.503,25.331,6.291,6.7319,93.44,33.794,50.74
2017-12-21 19:00,7.86,32.494,25.327,6.309,6.7354,93.67,33.768,50.78
2017-12-21 20:00,7.87,32.511,25.338,6.295,6.7331,93.49,33.792,50.60
2017-12-21 21:00,7.75,32.408,25.275,6.400,6.7562,94.73,33.592,50.54
2017-12-21 22:00,7.87,32.504,25.333,6.301,6.7334,93.58,33.786,50.53
2017-12-21 23:00,7.78,32.435,25.292,6.374,6.7504,94.42,33.643,50.69
2017-12-22 00:00,7.87,32.508,25.336,6.280,6.7332,93.27,33.790,50.66
2017-12-22 01:00,7.87,32.500,25.330,6.275,6.7336,93.18,33.782,50.58
2017-12-22 02:00,7.88,32.501,25.329,6.285,6.7320,93.36,33.792,50.61
2017-12-22 03:00,7.84,32.479,25.317,6.321,6.7392,93.80,33.736,50.77
2017-12-22 04:00,7.85,32.482,25.319,6.302,6.7375,93.54,33.748,50.60
2017-12-22 05:00,7.81,32.456,25.304,6.333,6.7448,93.89,33.689,50.60
2017-12-22 06:00,7.91,32.518,25.338,6.244,6.7266,92.83,33.834,50.55
2017-12-22 07:00,7.85,32.486,25.322,6.302,6.7373,93.54,33.752,50.68
2017-12-22 08:00,7.79,32.448,25.301,6.351,6.7482,94.11,33.664,50.68
2017-12-22 09:00,7.80,32.461,25.310,6.334,6.7461,93.89,33.685,50.82